QPF
0.00 0.00 0.00 0.00 0.01 0.01 0.01 0.01 0.01 0.02 0.03 0.04 0.05 0.04 0.03 0.02 0.03 0.03 0.03 0.03 0.03 0.02 0.02 0.03 0.05 0.05 0.04 0.02 0.01 0.01 0.01 0.01 0.01 0.01 0.01 0.01 0.01 0.00 0.00 0.01 0.01 0.02 0.01
0.00 0.00 0.00 0.00 0.01 0.01 0.01 0.01 0.01 0.02 0.03 0.04 0.05 0.05 0.04 0.04 0.04 0.03 0.04 0.04 0.04 0.03 0.03 0.04 0.05 0.06 0.05 0.04 0.02 0.02 0.01 0.01 0.00 0.00 0.00 0.00 0.00 0.01 0.01 0.01 0.01 0.01 0.01
0.00 0.00 0.00 0.00 0.01 0.01 0.02 0.01 0.01 0.02 0.02 0.04 0.05 0.07 0.06 0.05 0.05 0.04 0.05 0.04 0.05 0.06 0.06 0.06 0.07 0.07 0.05 0.05 0.04 0.02 0.01 0.00 0.00 0.00 0.00 0.00 0.01 0.01 0.01 0.01 0.01 0.01 0.01
0.00 0.00 0.00 0.00 0.01 0.01 0.02 0.02 0.01 0.02 0.03 0.03 0.04 0.05 0.06 0.08 0.08 0.07 0.06 0.06 0.06 0.05 0.06 0.06 0.07 0.07 0.06 0.05 0.04 0.03 0.01 0.00 0.00 0.00 0.01 0.01 0.01 0.01 0.01 0.01 0.01 0.01 0.01
0.00 0.00 0.00 0.00 0.01 0.02 0.03 0.02 0.02 0.02 0.03 0.03 0.03 0.03 0.04 0.05 0.07 0.08 0.09 0.08 0.07 0.05 0.05 0.05 0.07 0.07 0.06 0.05 0.05 0.04 0.02 0.01 0.00 0.00 0.01 0.01 0.01 0.01 0.01 0.01 0.01 0.01 0.01
0.00 0.00 0.00 0.00 0.01 0.02 0.03 0.05 0.04 0.03 0.04 0.04 0.04 0.03 0.04 0.04 0.05 0.07 0.10 0.10 0.07 0.06 0.05 0.05 0.06 0.07 0.05 0.05 0.03 0.03 0.01 0.01 0.00 0.00 0.00 0.00 0.01 0.01 0.01 0.01 0.01 0.01 0.01
0.00 0.00 0.00 0.00 0.01 0.02 0.03 0.05 0.05 0.05 0.05 0.05 0.05 0.05 0.04 0.03 0.05 0.08 0.09 0.08 0.07 0.06 0.06 0.06 0.06 0.06 0.06 0.05 0.03 0.02 0.01 0.01 0.00 0.00 0.00 0.01 0.01 0.01 0.01 0.01 0.01 0.01 0.01
0.00 0.00 0.00 0.01 0.01 0.02 0.03 0.05 0.06 0.05 0.06 0.05 0.05 0.05 0.04 0.03 0.04 0.07 0.09 0.09 0.08 0.07 0.05 0.05 0.05 0.06 0.06 0.05 0.04 0.02 0.02 0.01 0.00 0.00 0.01 0.01 0.01 0.01 0.01 0.01 0.01 0.01 0.01
0.01 0.00 0.00 0.01 0.01 0.02 0.04 0.05 0.06 0.06 0.06 0.05 0.04 0.05 0.05 0.05 0.05 0.06 0.07 0.08 0.08 0.07 0.06 0.05 0.05 0.06 0.05 0.05 0.04 0.04 0.03 0.02 0.01 0.01 0.01 0.01 0.01 0.01 0.01 0.01 0.01 0.01 0.01
0.01 0.01 0.00 0.01 0.01 0.02 0.03 0.05 0.06 0.07 0.07 0.06 0.04 0.05 0.05 0.04 0.04 0.05 0.06 0.07 0.07 0.08 0.08 0.06 0.06 0.06 0.05 0.04 0.03 0.04 0.03 0.02 0.01 0.01 0.01 0.00 0.01 0.01 0.01 0.01 0.01 0.01 0.01
0.01 0.01 0.01 0.01 0.01 0.02 0.03 0.05 0.06 0.07 0.07 0.07 0.05 0.04 0.05 0.04 0.04 0.04 0.05 0.06 0.07 0.07 0.07 0.06 0.06 0.06 0.06 0.05 0.04 0.04 0.03 0.02 0.01 0.01 0.01 0.01 0.01 0.01 0.01 0.01 0.02 0.01 0.01
0.01 0.01 0.01 0.01 0.01 0.02 0.03 0.05 0.06 0.07 0.06 0.07 0.05 0.04 0.04 0.04 0.04 0.04 0.05 0.06 0.07 0.07 0.07 0.06 0.05 0.05 0.05 0.05 0.05 0.05 0.04 0.02 0.02 0.01 0.01 0.00 0.01 0.01 0.01 0.01 0.01 0.01 0.01
0.01 0.01 0.01 0.01 0.01 0.01 0.03 0.05 0.07 0.07 0.06 0.07 0.06 0.05 0.05 0.04 0.04 0.04 0.06 0.06 0.06 0.08 0.08 0.07 0.07 0.06 0.06 0.06 0.05 0.05 0.05 0.04 0.03 0.02 0.01 0.01 0.01 0.01 0.02 0.02 0.02 0.01 0.01
0.01 0.01 0.02 0.02 0.02 0.01 0.02 0.04 0.07 0.08 0.07 0.06 0.05 0.06 0.06 0.05 0.04 0.05 0.06 0.06 0.05 0.06 0.06 0.06 0.06 0.05 0.05 0.04 0.04 0.04 0.05 0.04 0.04 0.04 0.03 0.02 0.01 0.01 0.02 0.02 0.01 0.01 0.01
0.00 0.01 0.02 0.02 0.02 0.02 0.02 0.04 0.07 0.10 0.09 0.06 0.05 0.05 0.06 0.06 0.05 0.05 0.06 0.07 0.07 0.05 0.05 0.05 0.05 0.04 0.04 0.04 0.04 0.04 0.04 0.03 0.03 0.03 0.02 0.02 0.02 0.01 0.01 0.02 0.02 0.01 0.01
0.00 0.00 0.02 0.02 0.01 0.02 0.02 0.03 0.07 0.11 0.13 0.11 0.06 0.05 0.06 0.07 0.06 0.05 0.07 0.07 0.07 0.07 0.06 0.05 0.05 0.04 0.04 0.03 0.03 0.03 0.04 0.04 0.04 0.03 0.02 0.02 0.02 0.02 0.02 0.02 0.02 0.02 0.02
0.00 0.00 0.01 0.02 0.02 0.01 0.02 0.03 0.06 0.12 0.16 0.16 0.10 0.06 0.06 0.07 0.08 0.06 0.06 0.08 0.08 0.08 0.09 0.07 0.06 0.05 0.04 0.03 0.02 0.03 0.03 0.04 0.04 0.05 0.04 0.03 0.02 0.01 0.01 0.02 0.02 0.02 0.02
0.00 0.00 0.01 0.02 0.02 0.01 0.02 0.03 0.07 0.12 0.17 0.18 0.16 0.11 0.07 0.07 0.07 0.06 0.07 0.08 0.09 0.10 0.12 0.12 0.08 0.07 0.05 0.03 0.02 0.02 0.02 0.02 0.03 0.03 0.04 0.03 0.02 0.01 0.01 0.01 0.02 0.02 0.03
0.01 0.00 0.01 0.02 0.03 0.03 0.02 0.04 0.06 0.13 0.17 0.18 0.16 0.15 0.11 0.09 0.08 0.06 0.07 0.08 0.08 0.09 0.10 0.13 0.12 0.09 0.07 0.06 0.04 0.03 0.02 0.02 0.02 0.03 0.03 0.03 0.02 0.02 0.01 0.01 0.01 0.01 0.02
0.02 0.01 0.01 0.03 0.04 0.05 0.04 0.04 0.07 0.13 0.17 0.18 0.16 0.16 0.14 0.10 0.08 0.07 0.06 0.07 0.08 0.09 0.09 0.10 0.12 0.11 0.09 0.07 0.05 0.04 0.03 0.02 0.02 0.02 0.02 0.02 0.03 0.02 0.02 0.01 0.01 0.01 0.01
0.02 0.01 0.02 0.04 0.06 0.07 0.06 0.05 0.06 0.12 0.18 0.17 0.15 0.15 0.15 0.12 0.08 0.06 0.07 0.07 0.09 0.09 0.09 0.09 0.08 0.10 0.11 0.10 0.08 0.07 0.05 0.04 0.03 0.02 0.02 0.02 0.02 0.02 0.02 0.02 0.02 0.01 0.01
0.02 0.01 0.02 0.03 0.05 0.06 0.06 0.05 0.07 0.10 0.15 0.16 0.15 0.16 0.16 0.14 0.10 0.07 0.07 0.08 0.09 0.09 0.08 0.10 0.08 0.07 0.08 0.09 0.08 0.07 0.06 0.07 0.05 0.03 0.02 0.02 0.02 0.02 0.02 0.01 0.02 0.02 0.02
0.02 0.02 0.01 0.02 0.04 0.07 0.07 0.07 0.09 0.11 0.13 0.14 0.15 0.17 0.18 0.16 0.13 0.10 0.08 0.08 0.09 0.10 0.08 0.08 0.09 0.07 0.07 0.07 0.07 0.06 0.05 0.05 0.04 0.03 0.02 0.02 0.01 0.02 0.01 0.01 0.01 0.01 0.02
0.01 0.02 0.02 0.02 0.04 0.07 0.08 0.09 0.09 0.10 0.12 0.12 0.11 0.13 0.18 0.18 0.15 0.12 0.11 0.10 0.10 0.11 0.10 0.06 0.06 0.07 0.07 0.07 0.07 0.06 0.04 0.03 0.03 0.02 0.02 0.02 0.02 0.02 0.01 0.01 0.01 0.01 0.01
0.02 0.03 0.03 0.02 0.04 0.06 0.07 0.10 0.09 0.10 0.11 0.11 0.09 0.10 0.13 0.14 0.16 0.12 0.12 0.12 0.10 0.10 0.10 0.09 0.06 0.06 0.06 0.06 0.07 0.07 0.07 0.05 0.04 0.03 0.03 0.02 0.02 0.02 0.02 0.02 0.02 0.02 0.02
0.03 0.04 0.02 0.02 0.04 0.06 0.06 0.09 0.10 0.11 0.11 0.12 0.11 0.10 0.11 0.11 0.12 0.12 0.10 0.12 0.11 0.09 0.10 0.09 0.08 0.06 0.05 0.05 0.05 0.06 0.07 0.07 0.05 0.04 0.03 0.03 0.03 0.03 0.03 0.03 0.03 0.02 0.02
MSLP
1011.11 1010.79 1010.33 1009.85 1009.44 1009.15 1009.01 1008.97 1009.00 1009.05 1009.08 1009.08 1009.07 1009.06 1009.09 1009.17 1009.30 1009.46 1009.63 1009.80 1009.93 1010.04 1010.14 1010.25 1010.39 1010.57 1010.79 1011.04 1011.27 1011.47 1011.62 1011.70 1011.75 1011.77 1011.80 1011.87 1012.00 1012.17 1012.37 1012.59 1012.79 1012.96 1013.11
1011.12 1010.82 1010.42 1010.04 1009.74 1009.54 1009.45 1009.43 1009.43 1009.43 1009.39 1009.33 1009.26 1009.23 1009.26 1009.35 1009.50 1009.67 1009.85 1010.00 1010.10 1010.16 1010.21 1010.28 1010.38 1010.53 1010.73 1010.96 1011.18 1011.38 1011.52 1011.61 1011.66 1011.70 1011.75 1011.85 1012.00 1012.19 1012.41 1012.64 1012.85 1013.03 1013.18
1011.05 1010.76 1010.44 1010.17 1009.98 1009.89 1009.87 1009.88 1009.87 1009.82 1009.73 1009.61 1009.50 1009.43 1009.43 1009.51 1009.64 1009.79 1009.94 1010.04 1010.09 1010.11 1010.11 1010.14 1010.22 1010.36 1010.55 1010.77 1011.00 1011.19 1011.33 1011.43 1011.49 1011.55 1011.63 1011.75 1011.92 1012.14 1012.38 1012.63 1012.85 1013.05 1013.23
1010.91 1010.65 1010.41 1010.25 1010.18 1010.19 1010.24 1010.27 1010.26 1010.19 1010.04 1009.87 1009.71 1009.60 1009.57 1009.60 1009.69 1009.79 1009.88 1009.92 1009.91 1009.88 1009.86 1009.87 1009.94 1010.09 1010.29 1010.53 1010.76 1010.96 1011.11 1011.21 1011.28 1011.34 1011.43 1011.57 1011.77 1012.01 1012.27 1012.54 1012.79 1013.02 1013.22
1010.74 1010.52 1010.36 1010.31 1010.35 1010.45 1010.55 1010.61 1010.60 1010.49 1010.30 1010.08 1009.88 1009.72 1009.64 1009.62 1009.64 1009.68 1009.69 1009.67 1009.61 1009.54 1009.50 1009.52 1009.62 1009.79 1010.03 1010.30 1010.55 1010.75 1010.90 1010.99 1011.05 1011.12 1011.21 1011.35 1011.55 1011.80 1012.09 1012.38 1012.66 1012.93 1013.18
1010.58 1010.42 1010.36 1010.40 1010.53 1010.69 1010.83 1010.90 1010.86 1010.71 1010.48 1010.22 1009.97 1009.77 1009.64 1009.56 1009.52 1009.48 1009.43 1009.34 1009.24 1009.16 1009.13 1009.17 1009.31 1009.53 1009.82 1010.11 1010.39 1010.60 1010.74 1010.82 1010.86 1010.90 1010.98 1011.11 1011.31 1011.56 1011.85 1012.17 1012.48 1012.79 1013.08
1010.49 1010.41 1010.44 1010.57 1010.76 1010.95 1011.09 1011.14 1011.06 1010.87 1010.60 1010.30 1010.02 1009.79 1009.61 1009.48 1009.38 1009.28 1009.16 1009.02 1008.90 1008.81 1008.79 1008.87 1009.06 1009.34 1009.67 1010.00 1010.29 1010.50 1010.63 1010.69 1010.70 1010.72 1010.77 1010.88 1011.06 1011.31 1011.60 1011.93 1012.27 1012.61 1012.95
1010.51 1010.53 1010.64 1010.83 1011.05 1011.25 1011.36 1011.36 1011.23 1010.99 1010.69 1010.36 1010.06 1009.81 1009.61 1009.44 1009.29 1009.13 1008.96 1008.78 1008.62 1008.53 1008.53 1008.64 1008.87 1009.19 1009.56 1009.92 1010.22 1010.43 1010.55 1010.58 1010.57 1010.56 1010.58 1010.67 1010.84 1011.07 1011.36 1011.69 1012.05 1012.41 1012.79
1010.66 1010.77 1010.96 1011.20 1011.42 1011.59 1011.65 1011.58 1011.40 1011.11 1010.78 1010.45 1010.15 1009.89 1009.68 1009.49 1009.30 1009.10 1008.87 1008.65 1008.46 1008.35 1008.34 1008.47 1008.72 1009.06 1009.44 1009.81 1010.11 1010.32 1010.43 1010.45 1010.43 1010.40 1010.42 1010.49 1010.64 1010.86 1011.14 1011.47 1011.83 1012.20 1012.60
1010.92 1011.12 1011.37 1011.63 1011.84 1011.96 1011.95 1011.82 1011.57 1011.26 1010.92 1010.59 1010.31 1010.07 1009.87 1009.67 1009.45 1009.20 1008.92 1008.64 1008.40 1008.25 1008.21 1008.32 1008.55 1008.88 1009.25 1009.61 1009.90 1010.10 1010.21 1010.24 1010.22 1010.21 1010.23 1010.31 1010.46 1010.68 1010.95 1011.26 1011.61 1011.98 1012.37
1011.25 1011.54 1011.83 1012.08 1012.26 1012.32 1012.25 1012.05 1011.77 1011.44 1011.11 1010.82 1010.57 1010.36 1010.17 1009.97 1009.73 1009.43 1009.09 1008.74 1008.43 1008.21 1008.11 1008.16 1008.34 1008.62 1008.95 1009.27 1009.54 1009.74 1009.85 1009.90 1009.92 1009.94 1009.99 1010.10 1010.26 1010.49 1010.75 1011.05 1011.37 1011.72 1012.10
1011.61 1011.94 1012.26 1012.50 1012.63 1012.63 1012.51 1012.28 1011.98 1011.67 1011.37 1011.11 1010.91 1010.74 1010.58 1010.37 1010.10 1009.76 1009.35 1008.93 1008.53 1008.21 1008.02 1007.98 1008.07 1008.27 1008.53 1008.80 1009.04 1009.22 1009.35 1009.43 1009.49 1009.56 1009.66 1009.81 1010.01 1010.25 1010.52 1010.80 1011.10 1011.42 1011.77
1011.92 1012.28 1012.60 1012.81 1012.91 1012.88 1012.72 1012.48 1012.19 1011.91 1011.66 1011.46 1011.31 1011.18 1011.03 1010.83 1010.53 1010.14 1009.67 1009.16 1008.68 1008.26 1007.96 1007.80 1007.78 1007.88 1008.04 1008.24 1008.43 1008.59 1008.72 1008.83 1008.93 1009.06 1009.23 1009.43 1009.67 1009.93 1010.21 1010.49 1010.77 1011.06 1011.38
1012.13 1012.50 1012.80 1012.99 1013.07 1013.01 1012.86 1012.63 1012.38 1012.15 1011.96 1011.82 1011.72 1011.62 1011.49 1011.28 1010.96 1010.53 1010.01 1009.44 1008.87 1008.36 1007.96 1007.69 1007.55 1007.52 1007.58 1007.68 1007.80 1007.92 1008.04 1008.15 1008.29 1008.47 1008.68 1008.93 1009.22 1009.51 1009.80 1010.08 1010.35 1010.63 1010.92
1012.21 1012.57 1012.85 1013.02 1013.09 1013.04 1012.91 1012.73 1012.54 1012.36 1012.23 1012.14 1012.08 1012.00 1011.88 1011.67 1011.34 1010.90 1010.35 1009.74 1009.12 1008.55 1008.06 1007.69 1007.43 1007.29 1007.23 1007.23 1007.26 1007.31 1007.38 1007.48 1007.61 1007.80 1008.04 1008.33 1008.64 1008.96 1009.27 1009.57 1009.84 1010.11 1010.40
1012.14 1012.47 1012.73 1012.90 1012.97 1012.96 1012.89 1012.77 1012.64 1012.53 1012.45 1012.40 1012.36 1012.29 1012.17 1011.96 1011.64 1011.20 1010.66 1010.06 1009.43 1008.83 1008.30 1007.85 1007.51 1007.25 1007.08 1006.96 1006.87 1006.83 1006.82 1006.86 1006.95 1007.12 1007.35 1007.64 1007.96 1008.30 1008.63 1008.95 1009.24 1009.52 1009.80
1011.95 1012.25 1012.49 1012.66 1012.76 1012.80 1012.79 1012.75 1012.70 1012.65 1012.60 1012.57 1012.53 1012.47 1012.35 1012.14 1011.84 1011.44 1010.94 1010.38 1009.79 1009.21 1008.67 1008.19 1007.77 1007.43 1007.14 1006.90 1006.69 1006.53 1006.41 1006.35 1006.36 1006.46 1006.65 1006.90 1007.21 1007.55 1007.90 1008.23 1008.55 1008.85 1009.16
1011.66 1011.92 1012.15 1012.33 1012.48 1012.58 1012.65 1012.69 1012.70 1012.69 1012.68 1012.65 1012.60 1012.52 1012.39 1012.21 1011.94 1011.59 1011.17 1010.69 1010.17 1009.64 1009.13 1008.64 1008.19 1007.78 1007.39 1007.03 1006.70 1006.40 1006.15 1005.97 1005.86 1005.86 1005.96 1006.16 1006.43 1006.75 1007.10 1007.45 1007.80 1008.13 1008.47
1011.33 1011.55 1011.76 1011.96 1012.15 1012.33 1012.47 1012.58 1012.65 1012.68 1012.67 1012.63 1012.56 1012.47 1012.33 1012.16 1011.94 1011.67 1011.33 1010.95 1010.53 1010.08 1009.62 1009.15 1008.68 1008.21 1007.75 1007.29 1006.84 1006.42 1006.03 1005.71 1005.47 1005.35 1005.34 1005.44 1005.65 1005.93 1006.27 1006.63 1007.00 1007.37 1007.73
1010.99 1011.18 1011.37 1011.58 1011.81 1012.04 1012.26 1012.43 1012.54 1012.60 1012.59 1012.53 1012.44 1012.32 1012.19 1012.03 1011.86 1011.66 1011.41 1011.13 1010.81 1010.44 1010.04 1009.60 1009.13 1008.64 1008.12 1007.59 1007.04 1006.51 1006.00 1005.55 1005.18 1004.92 1004.79 1004.79 1004.91 1005.13 1005.44 1005.80 1006.18 1006.58 1006.97
1010.68 1010.82 1010.99 1011.21 1011.47 1011.75 1012.01 1012.23 1012.38 1012.45 1012.44 1012.36 1012.25 1012.11 1011.97 1011.84 1011.70 1011.56 1011.40 1011.20 1010.96 1010.66 1010.31 1009.91 1009.45 1008.95 1008.41 1007.83 1007.23 1006.61 1006.02 1005.46 1004.97 1004.59 1004.33 1004.21 1004.24 1004.38 1004.64 1004.97 1005.35 1005.76 1006.17
1010.40 1010.50 1010.65 1010.86 1011.12 1011.43 1011.72 1011.97 1012.14 1012.22 1012.21 1012.13 1012.00 1011.85 1011.71 1011.59 1011.49 1011.39 1011.28 1011.14 1010.95 1010.70 1010.39 1010.02 1009.58 1009.09 1008.54 1007.95 1007.33 1006.69 1006.04 1005.41 1004.83 1004.34 1003.97 1003.74 1003.65 1003.70 1003.88 1004.17 1004.53 1004.92 1005.34
1010.17 1010.22 1010.33 1010.51 1010.77 1011.08 1011.38 1011.64 1011.83 1011.92 1011.92 1011.83 1011.70 1011.55 1011.42 1011.31 1011.22 1011.15 1011.06 1010.95 1010.78 1010.55 1010.26 1009.90 1009.49 1009.02 1008.50 1007.94 1007.33 1006.70 1006.03 1005.37 1004.74 1004.17 1003.69 1003.34 1003.14 1003.09 1003.18 1003.40 1003.71 1004.09 1004.50
1009.94 1009.95 1010.02 1010.17 1010.40 1010.68 1010.98 1011.24 1011.43 1011.53 1011.54 1011.47 1011.35 1011.21 1011.09 1010.98 1010.90 1010.83 1010.75 1010.63 1010.46 1010.23 1009.95 1009.60 1009.21 1008.78 1008.31 1007.79 1007.23 1006.63 1005.99 1005.32 1004.65 1004.02 1003.47 1003.02 1002.71 1002.55 1002.54 1002.68 1002.92 1003.26 1003.65
1009.70 1009.68 1009.70 1009.80 1009.99 1010.23 1010.51 1010.76 1010.95 1011.06 1011.08 1011.03 1010.93 1010.82 1010.71 1010.62 1010.53 1010.45 1010.35 1010.21 1010.03 1009.79 1009.50 1009.17 1008.80 1008.41 1007.99 1007.54 1007.04 1006.49 1005.88 1005.22 1004.54 1003.87 1003.24 1002.71 1002.30 1002.04 1001.94 1001.99 1002.17 1002.45 1002.81
1009.42 1009.37 1009.34 1009.39 1009.52 1009.73 1009.96 1010.19 1010.37 1010.49 1010.53 1010.51 1010.45 1010.37 1010.28 1010.19 1010.11 1010.01 1009.89 1009.73 1009.52 1009.27 1008.97 1008.65 1008.31 1007.96 1007.59 1007.19 1006.75 1006.24 1005.66 1005.02 1004.33 1003.62 1002.95 1002.35 1001.86 1001.52 1001.34 1001.32 1001.44 1001.68 1002.00
Thickness
5764 5767 5766 5766 5766 5766 5767 5767 5766 5766 5765 5765 5764 5763 5762 5762 5761 5760 5760 5759 5758 5757 5757 5756 5754 5752 5751 5749 5748 5746 5744 5742 5741 5740 5739 5737 5736 5735 5733 5732 5731 5729 5728
5764 5764 5762 5762 5762 5762 5762 5762 5762 5762 5761 5761 5760 5759 5759 5758 5758 5757 5756 5756 5755 5755 5754 5753 5752 5750 5748 5746 5745 5743 5741 5739 5738 5736 5735 5734 5733 5732 5730 5729 5728 5726 5725
5761 5760 5758 5757 5757 5757 5757 5757 5757 5757 5757 5756 5756 5756 5755 5755 5754 5754 5753 5752 5752 5751 5751 5750 5748 5747 5745 5744 5742 5740 5738 5736 5735 5734 5732 5731 5730 5729 5727 5726 5724 5723 5722
5757 5756 5753 5752 5752 5752 5752 5753 5753 5752 5752 5752 5752 5752 5751 5751 5751 5750 5750 5749 5748 5747 5747 5746 5745 5744 5742 5741 5739 5737 5735 5734 5732 5731 5730 5729 5727 5726 5724 5723 5721 5720 5718
5751 5750 5748 5747 5747 5747 5747 5748 5748 5748 5748 5748 5748 5748 5747 5747 5747 5746 5746 5745 5744 5743 5743 5742 5741 5740 5739 5737 5735 5734 5732 5731 5730 5729 5728 5726 5725 5723 5721 5720 5718 5716 5715
5745 5744 5742 5742 5742 5742 5742 5742 5743 5743 5743 5743 5743 5743 5743 5743 5743 5742 5741 5741 5740 5739 5738 5737 5736 5736 5734 5733 5732 5730 5729 5728 5727 5727 5725 5724 5722 5720 5718 5716 5714 5713 5711
5738 5738 5737 5736 5736 5736 5737 5737 5737 5738 5738 5738 5738 5738 5738 5738 5738 5738 5737 5736 5736 5735 5734 5733 5732 5731 5730 5729 5728 5726 5726 5725 5724 5724 5723 5721 5719 5717 5715 5713 5711 5709 5707
5732 5732 5731 5731 5730 5731 5731 5731 5731 5732 5732 5733 5733 5733 5733 5733 5733 5733 5732 5732 5731 5731 5729 5728 5728 5727 5726 5725 5724 5723 5722 5722 5721 5721 5719 5717 5716 5714 5712 5710 5707 5705 5704
5726 5726 5725 5724 5724 5725 5725 5725 5726 5726 5727 5727 5728 5728 5728 5728 5728 5728 5728 5727 5727 5726 5725 5724 5723 5723 5722 5721 5720 5719 5718 5718 5717 5717 5716 5714 5712 5710 5708 5706 5704 5702 5700
5718 5718 5718 5718 5717 5718 5718 5719 5719 5720 5721 5721 5722 5722 5722 5722 5722 5723 5722 5722 5722 5721 5720 5720 5719 5718 5717 5716 5715 5715 5714 5714 5713 5713 5712 5710 5708 5706 5704 5702 5700 5698 5696
5709 5710 5710 5710 5710 5710 5711 5712 5712 5713 5714 5715 5715 5716 5716 5716 5716 5716 5717 5717 5716 5716 5715 5714 5714 5713 5712 5711 5711 5711 5710 5710 5710 5709 5708 5706 5704 5702 5700 5698 5696 5694 5692
5698 5701 5702 5702 5702 5702 5703 5703 5705 5706 5707 5707 5708 5709 5709 5710 5710 5710 5711 5711 5710 5710 5709 5709 5708 5708 5707 5706 5706 5706 5706 5706 5706 5705 5704 5702 5700 5698 5697 5694 5692 5691 5688
5690 5692 5693 5694 5694 5694 5694 5695 5696 5698 5699 5699 5701 5702 5702 5703 5703 5703 5703 5704 5704 5703 5703 5703 5702 5702 5702 5701 5701 5701 5701 5701 5702 5701 5700 5698 5696 5695 5693 5691 5688 5686 5685
5682 5683 5684 5685 5685 5685 5685 5685 5686 5688 5690 5691 5693 5694 5695 5695 5695 5695 5695 5696 5697 5697 5697 5696 5696 5696 5696 5696 5696 5697 5697 5697 5697 5696 5695 5694 5692 5691 5689 5687 5684 5682 5680
5674 5674 5674 5675 5675 5675 5675 5676 5677 5679 5680 5683 5684 5686 5687 5687 5687 5687 5687 5688 5689 5690 5690 5690 5690 5690 5690 5690 5691 5691 5692 5693 5693 5691 5690 5689 5688 5686 5685 5683 5681 5679 5677
5665 5665 5666 5665 5665 5665 5665 5666 5667 5669 5671 5673 5675 5677 5678 5679 5679 5679 5679 5679 5680 5682 5683 5683 5683 5683 5684 5684 5684 5685 5686 5686 5687 5686 5685 5684 5682 5681 5680 5679 5678 5675 5674
5656 5656 5655 5655 5655 5654 5655 5655 5657 5658 5661 5662 5665 5668 5669 5670 5670 5670 5670 5671 5672 5674 5675 5675 5676 5676 5676 5677 5677 5678 5679 5680 5681 5681 5680 5679 5677 5676 5675 5674 5673 5672 5670
5646 5645 5645 5644 5643 5642 5642 5643 5645 5647 5649 5652 5654 5657 5659 5660 5660 5660 5660 5662 5663 5665 5666 5666 5667 5667 5668 5668 5669 5670 5672 5673 5674 5674 5674 5673 5672 5671 5670 5669 5668 5667 5666
5634 5633 5632 5631 5630 5629 5630 5630 5632 5635 5637 5640 5642 5645 5647 5649 5650 5650 5650 5651 5653 5655 5656 5657 5658 5658 5658 5659 5660 5661 5663 5665 5666 5667 5667 5667 5667 5666 5666 5664 5663 5662 5661
5623 5622 5621 5620 5618 5618 5617 5617 5618 5621 5624 5627 5629 5632 5635 5637 5638 5639 5639 5640 5642 5644 5645 5646 5647 5649 5649 5649 5650 5652 5654 5656 5658 5659 5660 5661 5661 5661 5661 5660 5659 5657 5656
5612 5610 5609 5608 5607 5606 5605 5604 5605 5607 5611 5614 5617 5620 5623 5624 5625 5627 5628 5629 5631 5633 5634 5636 5637 5637 5638 5638 5637 5639 5643 5646 5649 5651 5653 5653 5654 5655 5655 5655 5654 5653 5651
5600 5599 5598 5597 5596 5595 5593 5593 5594 5596 5599 5602 5606 5609 5612 5613 5614 5617 5618 5619 5620 5622 5623 5624 5626 5626 5627 5628 5627 5626 5629 5632 5638 5644 5645 5646 5647 5648 5648 5649 5648 5648 5646
5589 5589 5589 5587 5586 5584 5583 5582 5583 5585 5588 5590 5594 5597 5601 5603 5604 5606 5607 5608 5609 5611 5612 5613 5614 5616 5617 5618 5619 5617 5618 5623 5627 5631 5635 5638 5639 5640 5641 5642 5642 5642 5640
5580 5580 5579 5577 5576 5575 5574 5572 5573 5576 5578 5583 5585 5588 5591 5593 5594 5595 5596 5598 5599 5600 5601 5602 5605 5606 5606 5607 5608 5610 5613 5617 5616 5619 5623 5627 5629 5631 5632 5634 5634 5634 5634
5572 5571 5569 5568 5567 5566 5566 5565 5566 5568 5571 5574 5576 5578 5580 5582 5583 5585 5587 5588 5590 5591 5592 5593 5595 5596 5597 5598 5599 5601 5602 5606 5608 5608 5611 5614 5617 5622 5624 5625 5626 5627 5627
5563 5561 5561 5560 5558 5558 5558 5558 5558 5560 5562 5564 5566 5568 5570 5572 5574 5576 5578 5579 5580 5582 5583 5584 5586 5587 5588 5590 5590 5593 5594 5596 5599 5600 5602 5605 5608 5612 5615 5617 5619 5620 5620